Regional Weather Roundup
Issued by NWS

Home | Current Version | Previous Version | Graphics & Text | Print | Product List | Glossary On
Versions: 1 2 3 4 5 6 7 8 9 10 11 12 13 14 15 16 17 18 19 20 21 22 23 24 25 26 27 28 29 30 31 32 33 34 35 36 37 38 39 40 41 42 43 44 45 46 47 48 49 50
000
ASUS43 KDTX 190710
RWRMI
MICHIGAN HOURLY REGIONAL WEATHER ROUNDUP
NATIONAL WEATHER SERVICE DETROIT/PONTIAC MI
200 AM EST THU JAN 19 2017

NOTE: "FAIR" INDICATES FEW OR NO CLOUDS BELOW 12,000 FEET WITH NO
SIGNIFICANT WEATHER AND/OR OBSTRUCTION TO VISIBILITY.

MIZ047>049-052>055-059>063-066>070-074>076-081>083-190800-
SOUTHEAST LOWER MICHIGAN

CITY           SKY/WX    TMP DP  RH WIND       PRES   REMARKS
ADRIAN         CLOUDY    32  32 100 W8        30.06F WCI  25
ALMA           CLOUDY    34  32  93 SW10      30.01S WCI  26
ANN ARBOR      CLOUDY    32  31  96 SW12      30.04S WCI  23
BAD AXE        CLOUDY    33  32  97 W10       30.01R WCI  24
CARO           CLOUDY    33  32  94 SW12      30.01R WCI  25
DETROIT CITY   CLOUDY    34  32  93 SW12      30.04S WCI  25
DETROIT        CLOUDY    34  31  88 SW12      30.06S WCI  25
GROSSE ILE     CLOUDY    33  32  94 SW7       30.05S WCI  27
HILLSDALE      CLOUDY    32  32 100 SW6       30.03F FOG     WCI  26
HOWELL         CLOUDY    32  30  93 SW8       30.02S WCI  25

CITY           SKY/WX    TMP DP  RH WIND       PRES   REMARKS
JACKSON        CLOUDY    33  30  88 SW9       30.04S WCI  25
LAMBERTVILLE   CLOUDY    35  32  88 W7        30.07S WCI  29
LANSING        CLOUDY    33  29  85 SW10      30.03S WCI  25
LAPEER         CLOUDY    33  32  94 W9G18     30.01S WCI  26
MASON          CLOUDY    32  31  97 SW9       30.03S WCI  24
MONROE         CLOUDY    33  32  97 SW14      30.06S WCI  23
MT. CLEMENS    CLOUDY    35  33  91 SW6       30.01S WCI  30
PONTIAC        CLOUDY    32  29  88 SW8       30.00S WCI  25
PORT HOPE        N/A     34  31  88 W8        29.98S WCI  27
PORT HURON     CLOUDY    34  32  93 SW5       30.02S WCI  30
TRI CITIES     CLOUDY    34  32  92 SW10      30.01R FOG     WCI  26
MIDLAND        CLOUDY    35  32  88 SW7       30.00R WCI  29
TROY           CLOUDY    34  31  89 SW7       30.05S WCI  28
SAGINAW HB     CLOUDY    34  30  86 SW8G16    30.01S WCI  27
$$
MIZ043>046-050>051-056>058-064>065-071>073-077>080-190800-
SOUTHWEST LOWER MICHIGAN

CITY           SKY/WX    TMP DP  RH WIND       PRES   REMARKS
BATTLE CREEK   CLOUDY    34  32  92 SW13      30.05S WCI  25
BENTON HARBOR  CLOUDY    36  32  85 S6        30.06S WCI  31
BIG RAPIDS     CLOUDY    34  32  92 W10G16    29.98R FOG     WCI  26
COLDWATER      CLOUDY    33  33 100 SW9       30.05S WCI  26
FREMONT        CLOUDY    35  33  95 SW10      30.01R WCI  27
HOLLAND        CLOUDY    36  33  89 SW12      30.04S WCI  28
GRAND RAPIDS   CLOUDY    34  31  88 SW12      30.03S WCI  25
IONIA          CLOUDY    32  31  96 SW13G18   30.02S WCI  23
KALAMAZOO      CLOUDY    35  30  82 SW9       30.06S WCI  28
LUDINGTON      CLOUDY    34  33  96 SW12G17   29.99S FOG     WCI  26
MARSHALL       CLOUDY    33  32  96 SW9G17    30.05R WCI  25
MOUNT PLEASANT CLOUDY    35  32  90 W7        29.99R WCI  29
MUSKEGON       CLOUDY    37  34  89 SW13      30.03S WCI  29
SOUTH HAVEN    CLOUDY    35  33  91 SW8       30.05S WCI  29
$$
MIZ016>042-190800-
NORTHERN LOWER MICHIGAN

CITY           SKY/WX    TMP DP  RH WIND       PRES   REMARKS
ALPENA         CLOUDY    36  31  82 W5        29.96R WCI  32
BEAVER ISLAND  CLEAR     36  34  92 SW10G16   29.90F WCI  28
BELLAIRE       CLOUDY    35  32  89 S6        29.95S WCI  30
CADILLAC       CLOUDY    32  32  98 SW10      29.94S FOG     WCI  24
CHARLEVOIX     CLOUDY    35  34  96 S8        29.96R WCI  28
FRANKFORT      CLOUDY    37  35  93 SW7       29.95S FOG     WCI  31
GAYLORD        CLOUDY    34  29  82 W10       29.92R HAZE    WCI  26
GRAYLING       CLOUDY    34  32  92 W7        29.95R WCI  28
HARBOR SPRINGS CLOUDY    34  33  93 SW6       29.93R WCI  29
HOUGHTON LAKE  CLOUDY    33  30  88 W9        29.96R WCI  25
MANISTEE       CLOUDY    35  33  92 SW7       29.97S WCI  29
OSCODA         CLOUDY    35  32  90 CALM      29.97R
PELLSTON       CLOUDY    36  31  82 VRB7      29.92S WCI  30
ROGERS CITY    CLOUDY    36  32  87 SW5       29.94S WCI  32
TRAVERSE CITY  CLOUDY    36  32  85 SW7       29.94S WCI  30
$$
MIZ007>008-015-190800-
EASTERN UPPER MICHIGAN

CITY           SKY/WX    TMP DP  RH WIND       PRES   REMARKS
KINROSS        CLOUDY    35  33  92 SW3       29.90S
MACKINAC ISLAN CLOUDY    34  34 100 SW10G17   29.91R FOG     WCI  26
NEWBERRY       CLOUDY    31  31  98 SW7       29.87S FOG     WCI  25
S. S. MARIE    CLOUDY    35  33  92 W3        29.90S
MUNISING         N/A     29  27  92 S8        29.86S WCI  21
$$
MIZ004>006-011>014-085-190800-
CENTRAL UPPER MICHIGAN

CITY           SKY/WX    TMP DP  RH WIND       PRES   REMARKS
MANISTIQUE     CLOUDY    30  30  98 CALM      29.87F FOG
ESCANABA       CLOUDY    29  28  96 SW8       29.89S WCI  21
SAWYER-GWINN   FOG       21  20  96 CALM      29.85S VSB 1/4
$$
MIZ001>003-009>011-084-190800-
WESTERN UPPER MICHIGAN

CITY           SKY/WX    TMP DP  RH WIND       PRES   REMARKS
IRON MOUNTAIN  CLOUDY    21  19  92 CALM      29.86R FOG
HOUGHTON       CLOUDY    26  25  96 CALM      29.82R
COPPER HARBOR    N/A     30  27  88 SW5       29.83F WCI  25
IRONWOOD       CLOUDY    30  29  96 S3        29.82S
$$

ABBREVIATIONS USED IN REMARKS
   TC - TEMPERATURE IN CELSIUS
  WCI - WIND CHILL INDEX
   HX - HEAT INDEX
  VSB - VISIBILITY





USA.gov is the U.S. government's official web portal to all federal, state and local government web resources and services.